Retour au catalogue

TIANMU-1 20

ActifMétéoSSO
NORAD 58661·PAYLOAD·🇨🇳 China

Lancé Dec 27, 2023 depuis Jiuquan Satellite Launch Center

Loading…

Prochains Passages (prochaines 24 heures)

TLE

FraisSource: Space-Track

Époque: Sep 14, 2026, 14:18 UTC

1 58661U 23208B   26257.59643274  .00006970  00000-0  21428-3 0  9995
2 58661  97.4523  15.1978 0006971  16.3893 343.7574 15.33987574151127

Suivez TIANMU-1 20 en temps réel avec AllMySat

Download on the App Store